TimeCST,TemperatureF,Dew PointF,Humidity,Sea Level PressureIn,VisibilityMPH,Wind Direction,Wind SpeedMPH,Gust SpeedMPH,PrecipitationIn,Events,Conditions,WindDirDegrees,DateUTC
12:53 AM,33.1,30.9,92,29.91,4.0,WNW,10.4,-,0.00,Snow,Light Snow,290,2012-12-29 06:53:00
1:21 AM,33.8,30.2,87,29.91,7.0,WNW,11.5,-,0.00,,Overcast,300,2012-12-29 07:21:00
1:51 AM,33.8,30.2,87,29.92,7.0,NW,8.1,-,0.00,,Overcast,310,2012-12-29 07:51:00
1:53 AM,33.1,30.9,92,29.93,7.0,NW,9.2,-,0.00,,Overcast,310,2012-12-29 07:53:00
2:53 AM,33.1,30.9,92,29.96,7.0,WNW,6.9,-,N/A,,Overcast,300,2012-12-29 08:53:00
3:53 AM,33.1,30.9,92,29.96,7.0,WNW,9.2,-,N/A,,Overcast,300,2012-12-29 09:53:00
4:53 AM,33.1,30.0,89,29.98,6.0,WNW,10.4,-,N/A,,Overcast,300,2012-12-29 10:53:00
5:30 AM,33.8,30.2,87,29.99,6.0,WNW,12.7,-,N/A,,Overcast,300,2012-12-29 11:30:00
5:53 AM,33.1,30.0,89,30.02,6.0,WNW,10.4,-,N/A,,Overcast,290,2012-12-29 11:53:00
6:19 AM,33.8,28.4,81,30.02,6.0,WNW,11.5,-,N/A,,Overcast,300,2012-12-29 12:19:00
6:53 AM,32.0,28.9,88,30.04,6.0,WNW,11.5,-,N/A,,Overcast,300,2012-12-29 12:53:00
7:30 AM,32.0,28.4,87,30.05,5.0,WNW,10.4,-,N/A,,Overcast,300,2012-12-29 13:30:00
7:53 AM,32.0,28.9,88,30.07,4.0,WNW,12.7,-,N/A,,Overcast,300,2012-12-29 13:53:00
8:43 AM,30.2,28.4,93,30.10,2.5,WNW,13.8,-,0.00,Snow,Light Snow,300,2012-12-29 14:43:00
8:53 AM,30.9,28.0,89,30.11,2.0,WNW,16.1,-,0.00,Snow,Light Snow,300,2012-12-29 14:53:00
9:15 AM,30.2,26.6,86,30.12,2.0,WNW,16.1,-,0.00,Snow,Light Snow,300,2012-12-29 15:15:00
9:43 AM,30.2,26.6,86,30.13,3.0,WNW,17.3,-,0.00,Snow,Light Snow,300,2012-12-29 15:43:00
9:53 AM,30.0,26.1,85,30.14,3.0,NW,13.8,-,0.00,Snow,Light Snow,310,2012-12-29 15:53:00
10:07 AM,30.2,26.6,86,30.14,3.0,WNW,13.8,-,0.00,,Overcast,300,2012-12-29 16:07:00
10:38 AM,30.2,26.6,86,30.15,5.0,WNW,16.1,-,0.00,,Haze,300,2012-12-29 16:38:00
10:53 AM,30.0,26.1,85,30.17,5.0,WNW,15.0,-,0.00,,Overcast,300,2012-12-29 16:53:00
11:10 AM,30.2,26.6,86,30.16,5.0,WNW,16.1,-,N/A,,Haze,300,2012-12-29 17:10:00
11:53 AM,30.9,25.0,79,30.17,5.0,NW,17.3,-,N/A,,Haze,310,2012-12-29 17:53:00
12:26 PM,30.2,24.8,80,30.16,5.0,NW,19.6,-,N/A,,Haze,310,2012-12-29 18:26:00
12:53 PM,30.9,23.0,72,30.18,6.0,NW,17.3,26.5,N/A,,Haze,310,2012-12-29 18:53:00
1:53 PM,30.9,24.1,76,30.19,6.0,NW,15.0,20.7,N/A,,Haze,320,2012-12-29 19:53:00
2:53 PM,30.0,24.1,79,30.22,7.0,NW,16.1,-,N/A,,Overcast,310,2012-12-29 20:53:00
3:37 PM,28.4,21.2,74,30.24,8.0,NW,9.2,-,N/A,,Overcast,310,2012-12-29 21:37:00
3:48 PM,28.4,21.2,74,30.25,8.0,NW,10.4,-,N/A,,Overcast,310,2012-12-29 21:48:00
3:53 PM,28.9,21.9,75,30.26,8.0,NW,9.2,-,N/A,,Overcast,310,2012-12-29 21:53:00
4:53 PM,26.6,21.2,80,30.29,8.0,West,8.1,-,N/A,,Mostly Cloudy,280,2012-12-29 22:53:00
5:04 PM,26.6,21.2,80,30.29,9.0,West,6.9,-,N/A,,Mostly Cloudy,280,2012-12-29 23:04:00
5:12 PM,24.8,19.4,80,30.29,10.0,WNW,6.9,-,N/A,,Scattered Clouds,290,2012-12-29 23:12:00
5:53 PM,19.9,16.0,85,30.32,9.0,West,4.6,-,N/A,,Clear,280,2012-12-29 23:53:00
6:53 PM,19.9,16.0,85,30.35,9.0,SW,6.9,-,N/A,,Clear,220,2012-12-30 00:53:00
7:53 PM,18.0,15.1,88,30.37,7.0,SW,4.6,-,N/A,,Clear,220,2012-12-30 01:53:00
8:53 PM,18.0,15.1,88,30.39,6.0,Calm,Calm,-,N/A,,Clear,0,2012-12-30 02:53:00
9:53 PM,19.9,17.1,89,30.40,5.0,Calm,Calm,-,N/A,,Clear,0,2012-12-30 03:53:00
10:53 PM,15.1,12.0,88,30.40,3.0,Calm,Calm,-,N/A,,Clear,0,2012-12-30 04:53:00
11:53 PM,15.1,12.0,88,30.40,6.0,Calm,Calm,-,N/A,,Clear,0,2012-12-30 05:53:00